Home > Weather > Mildura > Past weeks

Flag for Australia Past Weather in Mildura, Victoria, Australia — Yesterday and Last 2 Weeks

Now
56 °F

Cool.


Feels Like: 55 °F
Forecast: 40 / 65 °F
Wind: 7 mph from Northwest

Location: Mildura Airport

Current Time: Jul 29, 2016 at 2:03:00 PM

Latest Report: Jul 29, 2016 at 1:00 PM


Visibility: N/A

Pressure: 30.27 "Hg

Humidity: 66%

Dew Point: 45 °F

Location of MilduraLocation

Past Weather in Mildura — Graph

°F

Mildura Temperature Yesterday

Maximum temperature yesterday: 55 °F (at 3:00 PM)
Minimum temperature yesterday: 40 °F (at 4:00 AM)
Average temperature yesterday: 49 °F

High & Low Weather Summary for the Past Weeks

 TemperatureHumidityPressure
High70 °F (Jul 21, 3:00 PM)100% (Jul 17, 2:00 AM)30.57 "Hg (Jul 17, 2:00 AM)
Low31 °F (Jul 16, 7:00 AM)39% (Jul 17, 2:00 PM)29.56 "Hg (Jul 22, 4:00 PM)
Average52 °F77%30.13 "Hg
* Reported Jul 14 12:00 PM — Jul 29 12:00 PM, Mildura, Weather by CustomWeather, © 2016

Note: Actual official high and low records may vary slightly from our data, if they occured in-between our weather recording intervals... More about our weather records

Advertising

Mildura Weather History for the Previous 24 Hours

Scroll right to see more
 ConditionsComfort  
Time TempWeatherWind HumidityBarometerVisibility
12:00 PM
Fri, Jul 29
54 °FOvercast.8 mph71%30.30 "HgN/A
11:00 AM52 °FCool.8 mph73%30.32 "HgN/A
10:00 AM49 °FCool.6 mph79%30.33 "HgN/A
9:00 AM46 °FOvercast.5 mph87%30.33 "Hg22 mi
8:00 AM42 °FQuite cool.7 mph92%30.32 "HgN/A
7:00 AM43 °FQuite cool.6 mph89%30.32 "HgN/A
6:00 AM45 °FOvercast.6 mph87%30.31 "HgN/A
5:00 AM46 °FCool.3 mph85%30.30 "HgN/A
4:00 AM46 °FCool.6 mph85%30.31 "HgN/A
3:00 AM45 °FOvercast.5 mph86%30.31 "HgN/A
2:00 AM44 °FQuite cool.6 mph90%30.30 "HgN/A
1:00 AM44 °FQuite cool.2 mph88%30.32 "HgN/A
12:00 AM45 °FCool.6 mph85%30.32 "HgN/A
11:00 PM
Thu, Jul 28
51 °FCool.3 mph73%30.34 "HgN/A
10:00 PM52 °FCool.3 mph73%30.35 "HgN/A
9:00 PM52 °FOvercast.3 mph73%30.35 "HgN/A
8:00 PM52 °FCool.3 mph73%30.35 "HgN/A
7:00 PM53 °FCool.3 mph67%30.35 "HgN/A
6:00 PM53 °FOvercast.6 mph65%30.35 "HgN/A
5:00 PM54 °FCool.8 mph63%30.34 "HgN/A
4:00 PM55 °FCool.8 mph61%30.34 "HgN/A
3:00 PM55 °FOvercast.8 mph62%30.34 "Hg22 mi
2:00 PM55 °FCool.9 mph61%30.36 "HgN/A
Weather by CustomWeather, © 2016

See weather overviewHow to use our weather pages